Middlesboro, KY

5:24 AM CDT on May 26, 2017 (GMT -0500)
Middlesboro

Weather History for K1A6 - May, 2013

Change the Weather History Date:

Monday, May 20, 2013

  Actual Average (KLOZ) Record (KLOZ)
Temperature  
Mean Temperature 70 °F -  
Max Temperature 82 °F 75 °F 90 °F (1977)
Min Temperature 58 °F 53 °F 37 °F (2002)
Cooling Degree Days 5    
Growing Degree Days 20 (Base 50)    
Moisture  
Dew Point 63 °F    
Average Humidity 79    
Maximum Humidity 99    
Minimum Humidity 54    
Precipitation  
Precipitation 0.00 in - - ()
Sea Level Pressure  
Sea Level Pressure 30.07 in    
Wind  
Wind Speed 2 mph (South)    
Max Wind Speed 8 mph    
Max Gust Speed -    
Visibility 10 miles    
Events Thunderstorm    
Averages and records for this station are not official NWS values.
T = Trace of Precipitation, MM = Missing Value Source: NWS Daily Summary

Daily Weather History Graph

Daily Weather History Graph

Search for Another Location

Airport or City:

Trip Planner

Search our weather history database for the weather conditions in past years. The results will help you decide how hot, cold, wet, or windy it might be!

Date:

Astronomy

May. 20, 2013 Rise Set
Actual Time 5:23 AM CDT 7:39 PM CDT
Civil Twilight 4:54 AM CDT 8:08 PM CDT
Nautical Twilight 4:18 AM CDT 8:44 PM CDT
Astronomical Twilight 3:39 AM CDT 9:23 PM CDT
Moon 2:53 PM CDT (5/20) 2:10 AM CDT (5/20)
Length of Visible Light 15h 14m
Length of Day
14h 15m
Waxing Gibbous, 75% of the Moon is Illuminated
May 20
Waxing Gibbous
May 24
Full
May 31
Last Quarter
Jun 8
New
Jun 16
First Quarter

Hourly Weather History & Observations

Time (CDT) Temp. Heat Index Dew Point Humidity Pressure Visibility Wind Dir Wind Speed Gust Speed Precip Events Conditions
12:15 AM 64.4 °F - 61.2 °F 89% 30.06 in 10.0 mi Calm Calm - N/A   Mostly Cloudy
12:35 AM 63.5 °F - 61.3 °F 93% 30.07 in 10.0 mi Calm Calm - N/A   Mostly Cloudy
12:55 AM 63.1 °F - 61.3 °F 94% 30.07 in 10.0 mi Calm Calm - N/A   Overcast
1:15 AM 63.1 °F - 61.3 °F 94% 30.07 in 10.0 mi Calm Calm - N/A   Overcast
1:35 AM 63.3 °F - 61.3 °F 93% 30.07 in 10.0 mi Calm Calm - N/A   Overcast
1:55 AM 63.1 °F - 61.7 °F 95% 30.07 in 10.0 mi Calm Calm - N/A   Overcast
2:15 AM 62.6 °F - 61.3 °F 96% 30.07 in 10.0 mi Calm Calm - N/A   Mostly Cloudy
2:35 AM 62.1 °F - 61.0 °F 96% 30.07 in 10.0 mi Calm Calm - N/A Thunderstorm Mostly Cloudy
3:15 AM 61.0 °F - 60.4 °F 98% 30.07 in 10.0 mi Calm Calm - N/A   Mostly Cloudy
3:35 AM 61.0 °F - 60.4 °F 98% 30.07 in 10.0 mi Calm Calm - N/A   Mostly Cloudy
3:55 AM 60.4 °F - 60.1 °F 99% 30.07 in 7.0 mi Calm Calm - N/A   Scattered Clouds
4:35 AM 60.1 °F - 59.9 °F 99% 30.08 in 10.0 mi Calm Calm - N/A   Overcast
4:55 AM 59.9 °F - 59.2 °F 97% 30.08 in 10.0 mi Calm Calm - N/A   Overcast
5:15 AM 59.4 °F - 59.0 °F 99% 30.08 in 10.0 mi Calm Calm - N/A   Mostly Cloudy
5:35 AM 59.0 °F - 58.5 °F 98% 30.09 in 7.0 mi Calm Calm - N/A   Scattered Clouds
5:55 AM 58.3 °F - 57.9 °F 99% 30.09 in 10.0 mi Calm Calm - N/A   Clear
6:15 AM 59.2 °F - 58.6 °F 98% 30.09 in 10.0 mi Calm Calm - N/A   Clear
6:35 AM 60.4 °F - 59.4 °F 96% 30.10 in 10.0 mi Calm Calm - N/A   Clear
6:55 AM 62.6 °F - 60.1 °F 91% 30.10 in 10.0 mi Calm Calm - N/A   Clear
7:15 AM 63.7 °F - 61.0 °F 91% 30.11 in 10.0 mi Calm Calm - N/A   Clear
7:35 AM 65.1 °F - 61.7 °F 89% 30.12 in 10.0 mi Calm Calm - N/A   Clear
7:55 AM 67.1 °F - 62.8 °F 86% 30.13 in 10.0 mi Calm Calm - N/A   Clear
8:15 AM 68.4 °F - 62.4 °F 81% 30.13 in 10.0 mi ESE 4.6 mph - N/A   Clear
8:35 AM 69.1 °F - 62.2 °F 79% 30.13 in 10.0 mi SE 3.5 mph - N/A   Scattered Clouds
9:15 AM 72.5 °F - 63.1 °F 72% 30.13 in 10.0 mi SE 3.5 mph - N/A   Scattered Clouds
9:35 AM 73.4 °F - 63.3 °F 71% 30.12 in 10.0 mi ESE 3.5 mph - N/A   Scattered Clouds
10:35 AM 74.8 °F - 63.7 °F 68% 30.12 in 10.0 mi South 5.8 mph - N/A   Overcast
10:55 AM 76.3 °F - 63.9 °F 65% 30.12 in 10.0 mi SSE 8.1 mph - N/A   Mostly Cloudy
11:15 AM 77.7 °F - 64.8 °F 64% 30.11 in 10.0 mi South 6.9 mph - N/A   Mostly Cloudy
11:35 AM 77.5 °F - 64.6 °F 64% 30.11 in 10.0 mi South 6.9 mph - N/A   Mostly Cloudy
11:55 AM 78.1 °F - 65.1 °F 64% 30.11 in 10.0 mi South 5.8 mph - N/A   Overcast
12:15 PM 77.9 °F - 65.1 °F 65% 30.10 in 10.0 mi South 8.1 mph - N/A   Mostly Cloudy
12:35 PM 78.4 °F - 65.3 °F 64% 30.10 in 10.0 mi South 6.9 mph - N/A   Mostly Cloudy
1:15 PM 79.0 °F - 65.3 °F 63% 30.09 in 10.0 mi SSE 5.8 mph - N/A   Mostly Cloudy
1:55 PM 80.6 °F 82.3 °F 64.6 °F 58% 30.08 in 10.0 mi ESE 3.5 mph - N/A   Overcast
2:15 PM 79.5 °F - 64.8 °F 60% 30.08 in 10.0 mi South 3.5 mph - N/A   Mostly Cloudy
2:35 PM 81.5 °F 83.3 °F 64.9 °F 57% 30.07 in 10.0 mi South 4.6 mph - N/A   Scattered Clouds
2:55 PM 81.0 °F 82.7 °F 64.8 °F 58% 30.07 in 10.0 mi SSE 5.8 mph - N/A   Scattered Clouds
3:15 PM 82.0 °F 83.8 °F 64.8 °F 56% 30.06 in 10.0 mi SSW 4.6 mph - N/A   Mostly Cloudy
3:35 PM 82.0 °F 83.4 °F 64.0 °F 54% 30.05 in 10.0 mi South 6.9 mph - N/A   Mostly Cloudy
3:55 PM 82.0 °F 83.8 °F 64.9 °F 56% 30.03 in 10.0 mi South 8.1 mph - N/A   Scattered Clouds
4:15 PM 81.9 °F 83.5 °F 64.8 °F 56% 30.03 in 10.0 mi South 6.9 mph - N/A   Mostly Cloudy
4:35 PM 82.0 °F 83.6 °F 64.4 °F 55% 30.03 in 10.0 mi SSW 6.9 mph - N/A   Scattered Clouds
4:55 PM 82.2 °F 83.7 °F 63.9 °F 54% 30.03 in 10.0 mi SSW 3.5 mph - N/A   Clear
5:15 PM 81.7 °F 83.2 °F 64.2 °F 55% 30.03 in 10.0 mi South 4.6 mph - N/A   Clear
5:35 PM 81.5 °F 83.1 °F 64.4 °F 56% 30.02 in 10.0 mi South 3.5 mph - N/A   Clear
5:55 PM 81.1 °F 82.8 °F 64.4 °F 57% 30.02 in 10.0 mi SSW 8.1 mph - N/A   Clear
6:15 PM 80.2 °F 81.8 °F 63.7 °F 57% 30.01 in 10.0 mi SSW 5.8 mph - N/A   Clear
6:35 PM 79.7 °F - 64.2 °F 59% 30.01 in 10.0 mi SSW 4.6 mph - N/A   Clear
6:55 PM 78.8 °F - 64.6 °F 62% 30.01 in 10.0 mi SSW 4.6 mph - N/A   Clear
7:15 PM 77.9 °F - 64.6 °F 63% 30.01 in 10.0 mi Calm Calm - N/A   Clear
7:35 PM 75.0 °F - 65.7 °F 73% 30.01 in 10.0 mi Calm Calm - N/A   Clear
7:55 PM 72.7 °F - 66.2 °F 80% 30.01 in 10.0 mi Calm Calm - N/A   Clear
8:15 PM 70.5 °F - 65.8 °F 85% 30.01 in 10.0 mi Calm Calm - N/A   Clear
8:35 PM 70.0 °F - 65.7 °F 86% 30.02 in 10.0 mi Calm Calm - N/A   Clear
9:15 PM 68.0 °F - 65.3 °F 91% 30.03 in 10.0 mi Calm Calm - N/A   Clear
9:35 PM 66.9 °F - 64.6 °F 92% 30.03 in 10.0 mi Calm Calm - N/A   Clear
9:55 PM 66.7 °F - 64.4 °F 92% 30.03 in 10.0 mi Calm Calm - N/A   Clear
10:15 PM 65.8 °F - 64.0 °F 94% 30.03 in 10.0 mi Calm Calm - N/A   Clear
10:35 PM 65.1 °F - 63.7 °F 95% 30.03 in 7.0 mi Calm Calm - N/A   Clear
10:55 PM 65.3 °F - 63.7 °F 94% 30.03 in 7.0 mi Calm Calm - N/A   Clear
11:15 PM 64.4 °F - 63.1 °F 96% 30.03 in 7.0 mi Calm Calm - N/A   Clear
11:35 PM 63.9 °F - 62.8 °F 96% 30.03 in 7.0 mi Calm Calm - N/A   Clear
11:55 PM 63.1 °F - 62.2 °F 97% 30.03 in 7.0 mi Calm Calm - N/A   Clear